| time (UTC) | temp F | wind direction | speed MPH | gust MPH | rain 1hr in | rain 24hr in | rain mn in | humidity % | barometer mb |
| 20260901071552 | 0 | 0.0 | 0.0 | 0.00 | 0.00 | 0.00 | |||
| 20260901064200 | 61 | 284 | 8.0 | 11.0 | 0.00 | 0.00 | 0.00 | 69 | 1012.4 |
| 20260901063435 | 61 | 260 | 8.0 | 18.0 | 0.00 | 0.00 | 0.00 | 69 | 1012.4 |
| 20260901062935 | 61 | 237 | 7.0 | 18.0 | 0.00 | 0.00 | 0.00 | 68 | 1012.3 |
| 20260901062431 | 61 | 254 | 7.0 | 15.0 | 0.00 | 0.00 | 0.00 | 69 | 1012.3 |
| 20260901061937 | 61 | 275 | 7.0 | 6.0 | 0.00 | 0.00 | 0.00 | 69 | 1012.3 |
| 20260901061629 | 0 | 0.0 | 0.0 | 0.00 | 0.00 | 0.00 | |||
| 20260901060348 | 61 | 240 | 7.0 | 13.0 | 0.00 | 0.00 | 0.00 | 68 | 1012.5 |
| 20260901055845 | 61 | 240 | 7.0 | 13.0 | 0.00 | 0.00 | 0.00 | 68 | 1012.5 |
| 20260901055608 | 61 | 237 | 3.0 | 12.0 | 0.00 | 0.00 | 0.00 | 68 | 1012.6 |
| 20260901055107 | 61 | 264 | 3.0 | 9.0 | 0.00 | 0.00 | 0.00 | 68 | 1012.6 |
| 20260901054342 | 61 | 243 | 3.0 | 7.0 | 0.00 | 0.00 | 0.00 | 68 | 1012.6 |
| 20260901054102 | 61 | 249 | 4.0 | 11.0 | 0.00 | 0.00 | 0.00 | 69 | 1012.5 |
| 20260901053340 | 61 | 221 | 5.0 | 11.0 | 0.00 | 0.00 | 0.00 | 69 | 1012.4 |
| 20260901052839 | 61 | 240 | 7.0 | 11.0 | 0.00 | 0.00 | 0.00 | 69 | 1012.3 |
| 20260901052340 | 61 | 265 | 7.0 | 11.0 | 0.00 | 0.00 | 0.00 | 69 | 1012.3 |
| 20260901051832 | 61 | 273 | 8.0 | 10.0 | 0.00 | 0.00 | 0.00 | 69 | 1012.3 |
| 20260901051524 | 0 | 0.0 | 0.0 | 0.00 | 0.00 | 0.00 | |||
| 20260901050125 | 61 | 278 | 7.0 | 13.0 | 0.00 | 0.00 | 0.00 | 69 | 1012.4 |
| 20260901045357 | 61 | 259 | 8.0 | 14.0 | 0.00 | 0.00 | 0.00 | 69 | 1012.4 |
| 20260901044857 | 61 | 250 | 8.0 | 14.0 | 0.00 | 0.00 | 0.00 | 69 | 1012.4 |
| 20260901044358 | 61 | 274 | 6.0 | 12.0 | 0.00 | 0.00 | 0.00 | 69 | 1012.3 |
| 20260901043855 | 61 | 244 | 5.0 | 10.0 | 0.00 | 0.00 | 0.00 | 69 | 1012.2 |
| 20260901043356 | 61 | 251 | 5.0 | 9.0 | 0.00 | 0.00 | 0.00 | 68 | 1012.2 |
| 20260901042854 | 62 | 261 | 4.0 | 9.0 | 0.00 | 0.00 | 0.00 | 68 | 1012.2 |
| 20260901042616 | 62 | 275 | 3.0 | 8.0 | 0.00 | 0.00 | 0.00 | 68 | 1012.1 |
| 20260901041852 | 62 | 266 | 3.0 | 9.0 | 0.00 | 0.00 | 0.00 | 67 | 1012.2 |
| 20260901041352 | 62 | 231 | 3.0 | 9.0 | 0.00 | 0.00 | 0.00 | 68 | 1012.1 |
| 20260901040852 | 62 | 268 | 4.0 | 11.0 | 0.00 | 0.00 | 0.00 | 67 | 1011.9 |
| 20260901040349 | 62 | 262 | 5.0 | 11.0 | 0.00 | 0.00 | 0.00 | 67 | 1011.8 |
| 20260901035849 | 62 | 234 | 4.0 | 10.0 | 0.00 | 0.00 | 0.00 | 67 | 1011.8 |
| 20260901035350 | 63 | 242 | 4.0 | 10.0 | 0.00 | 0.00 | 0.00 | 67 | 1011.8 |
| 20260901034846 | 63 | 259 | 3.0 | 7.0 | 0.00 | 0.00 | 0.00 | 67 | 1011.7 |
| 20260901034346 | 63 | 240 | 4.0 | 8.0 | 0.00 | 0.00 | 0.00 | 66 | 1011.7 |
| 20260901033845 | 63 | 232 | 3.0 | 8.0 | 0.00 | 0.00 | 0.00 | 66 | 1011.6 |
| 20260901033346 | 63 | 269 | 3.0 | 8.0 | 0.00 | 0.00 | 0.00 | 66 | 1011.5 |
| 20260901032841 | 63 | 230 | 4.0 | 8.0 | 0.00 | 0.00 | 0.00 | 66 | 1011.4 |
| 20260901032339 | 64 | 243 | 3.0 | 9.0 | 0.00 | 0.00 | 0.00 | 66 | 1011.3 |
| 20260901031839 | 64 | 276 | 4.0 | 9.0 | 0.00 | 0.00 | 0.00 | 65 | 1011.2 |
| 20260901031553 | 64 | 249 | 4.0 | 10.0 | 0.00 | 0.00 | 0.00 | 65 | 1011.1 |
| 20260901031054 | 64 | 245 | 5.0 | 10.0 | 0.00 | 0.00 | 0.00 | 65 | 1011.0 |
| 20260901030332 | 64 | 289 | 5.0 | 9.0 | 0.00 | 0.00 | 0.00 | 65 | 1010.9 |
| 20260901025831 | 64 | 268 | 5.0 | 9.0 | 0.00 | 0.00 | 0.00 | 64 | 1011.0 |
| 20260901025332 | 65 | 273 | 5.0 | 12.0 | 0.00 | 0.00 | 0.00 | 64 | 1011.0 |
| 20260901025055 | 65 | 275 | 5.0 | 12.0 | 0.00 | 0.00 | 0.00 | 64 | 1010.9 |
| 20260901024328 | 65 | 265 | 5.0 | 9.0 | 0.00 | 0.00 | 0.00 | 64 | 1010.9 |
| 20260901023829 | 65 | 259 | 5.0 | 10.0 | 0.00 | 0.00 | 0.00 | 63 | 1010.9 |
| 20260901023541 | 66 | 292 | 6.0 | 10.0 | 0.00 | 0.00 | 0.00 | 62 | 1010.9 |
| 20260901022822 | 66 | 265 | 5.0 | 11.0 | 0.00 | 0.00 | 0.00 | 61 | 1010.9 |
| 20260901022319 | 66 | 281 | 5.0 | 11.0 | 0.00 | 0.00 | 0.00 | 61 | 1010.8 |
| 20260901021819 | 67 | 259 | 6.0 | 10.0 | 0.00 | 0.00 | 0.00 | 61 | 1010.7 |
| 20260901021319 | 67 | 260 | 6.0 | 10.0 | 0.00 | 0.00 | 0.00 | 60 | 1010.7 |
| 20260901020819 | 68 | 273 | 5.0 | 10.0 | 0.00 | 0.00 | 0.00 | 59 | 1010.7 |
| 20260901020318 | 68 | 266 | 5.0 | 10.0 | 0.00 | 0.00 | 0.00 | 58 | 1010.8 |
| 20260901015818 | 68 | 236 | 6.0 | 10.0 | 0.00 | 0.00 | 0.00 | 58 | 1010.8 |
| 20260901015316 | 69 | 255 | 6.0 | 10.0 | 0.00 | 0.00 | 0.00 | 57 | 1010.8 |
| 20260901014818 | 69 | 274 | 6.0 | 11.0 | 0.00 | 0.00 | 0.00 | 56 | 1010.8 |
| 20260901014221 | 70 | 292 | 5.0 | 11.0 | 0.00 | 0.00 | 0.00 | 56 | 1010.8 |
| 20260901013720 | 70 | 246 | 5.0 | 10.0 | 0.00 | 0.00 | 0.00 | 55 | 1010.7 |
| 20260901013217 | 70 | 279 | 5.0 | 10.0 | 0.00 | 0.00 | 0.00 | 55 | 1010.8 |
| 20260901012715 | 71 | 273 | 6.0 | 10.0 | 0.00 | 0.00 | 0.00 | 54 | 1010.7 |
| 20260901012656 | 71 | 243 | 7.0 | 12.0 | 0.00 | 0.00 | 0.00 | 54 | 1010.7 |
| 20260901011709 | 71 | 239 | 7.0 | 12.0 | 0.00 | 0.00 | 0.00 | 53 | 1010.6 |
| 20260901011209 | 72 | 267 | 7.0 | 12.0 | 0.00 | 0.00 | 0.00 | 52 | 1010.6 |
| 20260901010707 | 72 | 265 | 7.0 | 17.0 | 0.00 | 0.00 | 0.00 | 52 | 1010.5 |
| 20260901010207 | 72 | 258 | 8.0 | 17.0 | 0.00 | 0.00 | 0.00 | 52 | 1010.5 |
| 20260901005929 | 73 | 266 | 8.0 | 13.0 | 0.00 | 0.00 | 0.00 | 51 | 1010.5 |
| 20260901005206 | 73 | 292 | 7.0 | 13.0 | 0.00 | 0.00 | 0.00 | 51 | 1010.4 |
| 20260901004706 | 73 | 311 | 6.0 | 13.0 | 0.00 | 0.00 | 0.00 | 50 | 1010.3 |
| 20260901004207 | 74 | 275 | 5.0 | 12.0 | 0.00 | 0.00 | 0.00 | 49 | 1010.4 |
| 20260901003925 | 74 | 244 | 6.0 | 12.0 | 0.00 | 0.00 | 0.00 | 49 | 1010.4 |
| 20260901003206 | 74 | 281 | 7.0 | 12.0 | 0.00 | 0.00 | 0.00 | 48 | 1010.4 |
| 20260901002705 | 74 | 254 | 7.0 | 13.0 | 0.00 | 0.00 | 0.00 | 48 | 1010.4 |
| 20260901002205 | 74 | 256 | 8.0 | 15.0 | 0.00 | 0.00 | 0.00 | 47 | 1010.5 |
| 20260901001704 | 75 | 266 | 8.0 | 15.0 | 0.00 | 0.00 | 0.00 | 47 | 1010.5 |
| 20260901001201 | 75 | 227 | 7.0 | 13.0 | 0.00 | 0.00 | 0.00 | 46 | 1010.5 |
| 20260901000924 | 76 | 229 | 7.0 | 14.0 | 0.00 | 0.00 | 0.00 | 46 | 1010.4 |
| 20260901000159 | 76 | 248 | 7.0 | 14.0 | 0.00 | 0.00 | 0.00 | 45 | 1010.5 |
| 20260831235659 | 76 | 258 | 7.0 | 15.0 | 0.00 | 0.00 | 0.00 | 45 | 1010.5 |
| 20260831235159 | 76 | 230 | 8.0 | 15.0 | 0.00 | 0.00 | 0.00 | 45 | 1010.6 |
| 20260831234658 | 77 | 260 | 7.0 | 14.0 | 0.00 | 0.00 | 0.00 | 45 | 1010.6 |
| 20260831234152 | 77 | 234 | 7.0 | 13.0 | 0.00 | 0.00 | 0.00 | 45 | 1010.6 |
| 20260831233652 | 77 | 236 | 7.0 | 13.0 | 0.00 | 0.00 | 0.00 | 45 | 1010.6 |
| 20260831233152 | 77 | 277 | 7.0 | 13.0 | 0.00 | 0.00 | 0.00 | 44 | 1010.6 |
| 20260831232650 | 77 | 267 | 7.0 | 13.0 | 0.00 | 0.00 | 0.00 | 44 | 1010.6 |
| 20260831232151 | 77 | 284 | 7.0 | 13.0 | 0.00 | 0.00 | 0.00 | 44 | 1010.6 |
| 20260831231651 | 78 | 320 | 7.0 | 14.0 | 0.00 | 0.00 | 0.00 | 43 | 1010.6 |
| 20260831231142 | 78 | 258 | 7.0 | 14.0 | 0.00 | 0.00 | 0.00 | 44 | 1010.7 |
| 20260831230641 | 78 | 221 | 7.0 | 12.0 | 0.00 | 0.00 | 0.00 | 41 | 1010.6 |
| 20260831230141 | 78 | 266 | 7.0 | 12.0 | 0.00 | 0.00 | 0.00 | 42 | 1010.6 |
| 20260831225640 | 78 | 238 | 7.0 | 12.0 | 0.00 | 0.00 | 0.00 | 42 | 1010.7 |
| 20260831225141 | 78 | 226 | 7.0 | 14.0 | 0.00 | 0.00 | 0.00 | 43 | 1010.8 |
| 20260831224640 | 78 | 246 | 7.0 | 14.0 | 0.00 | 0.00 | 0.00 | 43 | 1010.7 |
| 20260831224400 | 78 | 244 | 7.0 | 14.0 | 0.00 | 0.00 | 0.00 | 42 | 1010.9 |
| 20260831223639 | 78 | 232 | 6.0 | 12.0 | 0.00 | 0.00 | 0.00 | 43 | 1010.9 |
| 20260831223136 | 78 | 238 | 7.0 | 12.0 | 0.00 | 0.00 | 0.00 | 43 | 1011.0 |
| 20260831222636 | 78 | 227 | 8.0 | 13.0 | 0.00 | 0.00 | 0.00 | 42 | 1011.0 |
| 20260831222403 | 79 | 225 | 9.0 | 15.0 | 0.00 | 0.00 | 0.00 | 42 | 1011.0 |
| 20260831221627 | 79 | 260 | 8.0 | 15.0 | 0.00 | 0.00 | 0.00 | 42 | 1011.1 |
| 20260831221126 | 79 | 238 | 7.0 | 14.0 | 0.00 | 0.00 | 0.00 | 42 | 1011.1 |
| 20260831220626 | 80 | 253 | 7.0 | 12.0 | 0.00 | 0.00 | 0.00 | 41 | 1011.2 |
| 20260831220125 | 80 | 219 | 6.0 | 12.0 | 0.00 | 0.00 | 0.00 | 41 | 1011.3 |
| 20260831215623 | 79 | 300 | 5.0 | 12.0 | 0.00 | 0.00 | 0.00 | 42 | 1011.3 |
| 20260831215347 | 79 | 301 | 5.0 | 10.0 | 0.00 | 0.00 | 0.00 | 41 | 1011.3 |
| 20260831214620 | 79 | 281 | 6.0 | 12.0 | 0.00 | 0.00 | 0.00 | 42 | 1011.4 |
| 20260831214118 | 79 | 320 | 6.0 | 13.0 | 0.00 | 0.00 | 0.00 | 41 | 1011.5 |
| 20260831213841 | 79 | 274 | 7.0 | 13.0 | 0.00 | 0.00 | 0.00 | 41 | 1011.5 |
| 20260831213119 | 79 | 242 | 7.0 | 12.0 | 0.00 | 0.00 | 0.00 | 42 | 1011.6 |
| 20260831212619 | 78 | 276 | 7.0 | 14.0 | 0.00 | 0.00 | 0.00 | 43 | 1011.7 |
| 20260831212340 | 79 | 300 | 7.0 | 14.0 | 0.00 | 0.00 | 0.00 | 42 | 1011.7 |
| 20260831211617 | 79 | 254 | 7.0 | 13.0 | 0.00 | 0.00 | 0.00 | 42 | 1011.7 |
| 20260831211116 | 80 | 224 | 7.0 | 12.0 | 0.00 | 0.00 | 0.00 | 42 | 1011.8 |
| 20260831210615 | 79 | 274 | 7.0 | 12.0 | 0.00 | 0.00 | 0.00 | 42 | 1011.8 |
| 20260831210115 | 80 | 246 | 6.0 | 12.0 | 0.00 | 0.00 | 0.00 | 41 | 1011.8 |
| 20260831205833 | 80 | 233 | 5.0 | 12.0 | 0.00 | 0.00 | 0.00 | 41 | 1011.8 |
| 20260831205113 | 81 | 244 | 5.0 | 12.0 | 0.00 | 0.00 | 0.00 | 40 | 1011.8 |
| 20260831204612 | 81 | 287 | 6.0 | 12.0 | 0.00 | 0.00 | 0.00 | 39 | 1011.8 |
| 20260831204112 | 81 | 238 | 5.0 | 10.0 | 0.00 | 0.00 | 0.00 | 40 | 1011.9 |
| 20260831203602 | 80 | 215 | 6.0 | 11.0 | 0.00 | 0.00 | 0.00 | 42 | 1011.9 |
| 20260831203101 | 79 | 267 | 7.0 | 15.0 | 0.00 | 0.00 | 0.00 | 43 | 1011.9 |
| 20260831202558 | 80 | 241 | 6.0 | 15.0 | 0.00 | 0.00 | 0.00 | 42 | 1011.9 |
| 20260831202059 | 80 | 274 | 5.0 | 10.0 | 0.00 | 0.00 | 0.00 | 41 | 1012.0 |
| 20260831201824 | 80 | 187 | 4.0 | 11.0 | 0.00 | 0.00 | 0.00 | 41 | 1011.9 |
| 20260831201056 | 80 | 294 | 4.0 | 11.0 | 0.00 | 0.00 | 0.00 | 40 | 1011.8 |
| 20260831200555 | 81 | 215 | 5.0 | 12.0 | 0.00 | 0.00 | 0.00 | 40 | 1011.9 |
| 20260831200054 | 80 | 232 | 5.0 | 12.0 | 0.00 | 0.00 | 0.00 | 41 | 1011.8 |
| 20260831195813 | 78 | 196 | 3.0 | 11.0 | 0.00 | 0.00 | 0.00 | 43 | 1011.9 |
| 20260831195053 | 78 | 300 | 2.0 | 11.0 | 0.00 | 0.00 | 0.00 | 44 | 1011.8 |
| 20260831194547 | 76 | 101 | 1.0 | 4.0 | 0.00 | 0.00 | 0.00 | 45 | 1011.9 |
| 20260831194048 | 78 | 264 | 2.0 | 6.0 | 0.00 | 0.00 | 0.00 | 45 | 1012.0 |
| 20260831193546 | 78 | 290 | 2.0 | 6.0 | 0.00 | 0.00 | 0.00 | 44 | 1012.1 |
| 20260831193045 | 77 | 218 | 1.0 | 6.0 | 0.00 | 0.00 | 0.00 | 47 | 1012.2 |
| 20260831192544 | 76 | 137 | 2.0 | 6.0 | 0.00 | 0.00 | 0.00 | 47 | 1012.2 |
| 20260831192044 | 76 | 220 | 3.0 | 6.0 | 0.00 | 0.00 | 0.00 | 47 | 1012.3 |
| 20260831191557 | 76 | 182 | 3.0 | 9.0 | 0.00 | 0.00 | 0.00 | 47 | 1012.3 |
| 20260831191257 | 76 | 252 | 3.0 | 9.0 | 0.00 | 0.00 | 0.00 | 46 | 1012.4 |